WB5MTX Weather Reports


Display with metric or nautical units.
time (UTC)temp
F
wind
direction
speed
MPH
gust
MPH
rain 1hr
in
rain 24hr
in
rain mn
in
humidity
%
barometer
mb
20260508190053 71 0 1.0 7.0 0.00 0.00 0.00 69 1011.1
20260508184552 72 119 1.0 7.0 0.00 0.00 0.00 68 1011.2
20260508183052 71 0 2.0 10.0 0.00 0.00 0.00 68 1011.5
20260508181626 71 0 1.0 9.0 0.00 0.00 0.00 69 1011.6
20260508180057 73 0 0.0 7.0 0.00 0.00 0.00 65 1012.0
20260508174601 72 186 1.0 7.0 0.00 0.00 0.00 67 1012.0
20260508173057 71 0 0.0 6.0 0.00 0.00 0.00 68 1012.2
20260508171556 70 0 0.0 5.0 0.00 0.00 0.00 69 1012.6
20260508170054 70 0 0.0 7.0 0.00 0.00 0.00 69 1012.9
20260508164554 70 0 0.0 6.0 0.00 0.00 0.00 68 1013.0
20260508163051 69 0 0.0 6.0 0.00 0.00 0.00 71 1013.2
20260508161603 68 0 0.0 7.0 0.00 0.00 0.00 71 1013.4
20260508160051 67 94 1.0 8.0 0.00 0.00 0.00 72 1013.6
20260508154558 66 101 1.0 7.0 0.00 0.00 0.00 73 1013.8
20260508153055 65 156 0.0 5.0 0.00 0.00 0.00 73 1014.1
20260508151557 65 0 0.0 7.0 0.00 0.00 0.00 73 1014.1
20260508150051 65 220 0.0 6.0 0.00 0.00 0.00 74 1014.2
20260508144553 65 0 0.0 0.0 0.00 0.00 0.00 74 1014.2
20260508143053 65 0 0.0 0.0 0.00 0.00 0.00 73 1014.1
20260508141553 64 0 0.0 0.0 0.00 0.00 0.00 76 1014.4
20260508140054 63 0 0.0 0.0 0.00 0.00 0.00 75 1014.4
20260508134557 62 0 0.0 0.0 0.00 0.00 0.00 78 1014.5
20260508133104 61 0 0.0 0.0 0.00 0.00 0.00 80 1014.4
20260508131555 61 0 0.0 0.0 0.00 0.00 0.00 83 1014.3
20260508130052 60 0 0.0 0.0 0.00 0.00 0.00 85 1014.4
20260508124550 58 0 0.0 0.0 0.00 0.00 0.00 86 1014.5
20260508123057 58 0 0.0 0.0 0.00 0.00 0.00 87 1014.5
20260508121555 57 0 0.0 0.0 0.00 0.00 0.00 86 1014.5
20260508120053 57 0 0.0 0.0 0.00 0.00 0.00 86 1014.6
20260508114552 58 0 0.0 0.0 0.00 0.00 0.00 85 1014.4
20260508113053 58 0 0.0 0.0 0.00 0.00 0.00 86 1014.6
20260508111601 58 0 0.0 0.0 0.00 0.00 0.00 86 1014.6
20260508110052 58 0 0.0 0.0 0.00 0.00 0.00 85 1014.7
20260508104553 58 0 0.0 0.0 0.00 0.00 0.00 86 1014.4
20260508103106 59 0 0.0 0.0 0.00 0.00 0.00 86 1014.1
20260508101605 59 0 0.0 0.0 0.00 0.00 0.00 87 1014.2
20260508094606 59 0 0.0 0.0 0.00 0.00 0.00 88 1014.1
20260508093056 59 0 0.0 0.0 0.00 0.00 0.00 87 1014.3
20260508091600 59 0 0.0 0.0 0.00 0.00 0.00 87 1014.1
20260508090056 59 0 0.0 0.0 0.00 0.00 0.00 86 1014.2
20260508084559 59 0 0.0 0.0 0.00 0.00 0.00 86 1014.2
20260508083053 59 0 0.0 0.0 0.00 0.00 0.00 85 1014.1
20260508081629 59 0 0.0 0.0 0.00 0.00 0.00 84 1014.2
20260508080053 60 0 0.0 0.0 0.00 0.00 0.00 84 1014.3
20260508074556 60 0 0.0 0.0 0.00 0.00 0.00 84 1015.0
20260508073055 60 0 0.0 0.0 0.00 0.00 0.00 84 1015.1
20260508071558 60 0 0.0 0.0 0.00 0.00 0.00 83 1015.3
20260508064554 60 0 0.0 0.0 0.00 0.00 0.00 81 1015.3
20260508063056 60 0 0.0 0.0 0.00 0.00 0.00 81 1015.2
20260508061556 60 0 0.0 0.0 0.00 0.00 0.00 81 1015.4
20260508060059 60 0 0.0 0.0 0.00 0.00 0.00 80 1015.4
20260508054559 59 0 0.0 0.0 0.00 0.00 0.00 80 1015.5
20260508053056 60 0 0.0 0.0 0.00 0.00 0.00 78 1015.9
20260508051559 60 0 0.0 0.0 0.00 0.00 0.00 78 1015.9
20260508050057 60 0 0.0 0.0 0.00 0.00 0.00 77 1015.7
20260508044606 61 0 0.0 0.0 0.00 0.00 0.00 77 1015.8
20260508043106 61 0 0.0 0.0 0.00 0.00 0.00 78 1015.7
20260508041554 61 0 0.0 0.0 0.00 0.00 0.00 77 1015.6
20260508040059 61 0 0.0 0.0 0.00 0.00 0.00 76 1015.6
20260508034556 61 0 0.0 0.0 0.00 0.00 0.00 76 1015.6
20260508033055 62 0 0.0 0.0 0.00 0.00 0.00 75 1015.5
20260508031551 62 0 0.0 0.0 0.00 0.00 0.00 75 1015.2
20260508030059 62 0 0.0 0.0 0.00 0.00 0.00 74 1015.0
20260508024552 62 0 0.0 0.0 0.00 0.00 0.00 74 1014.9
20260508023052 63 0 0.0 0.0 0.00 0.00 0.00 73 1014.8
20260508021552 63 0 0.0 0.0 0.00 0.00 0.00 72 1014.8
20260508020053 63 0 0.0 0.0 0.00 0.00 0.00 71 1014.7
20260508014553 64 0 0.0 0.0 0.00 0.00 0.00 69 1014.6
20260508013051 64 0 0.0 0.0 0.00 0.00 0.00 69 1014.7
20260508011555 65 0 0.0 0.0 0.00 0.00 0.00 68 1014.7
20260508010056 65 0 0.0 0.0 0.00 0.00 0.00 67 1014.5
20260508004555 65 0 0.0 2.0 0.00 0.00 0.00 67 1014.7
20260508003053 66 0 0.0 0.0 0.00 0.00 0.00 65 1014.7
20260508001555 67 0 0.0 2.0 0.00 0.00 0.00 65 1014.8
20260508000054 67 0 0.0 5.0 0.00 0.00 0.00 64 1014.8
20260507234600 67 0 0.0 0.0 0.00 0.00 0.00 62 1015.0
20260507233053 68 0 0.0 6.0 0.00 0.00 0.00 61 1015.0
20260507231556 68 0 0.0 6.0 0.00 0.00 0.00 62 1015.0
20260507230058 68 0 0.0 6.0 0.00 0.00 0.00 62 1015.2
20260507224555 69 0 0.0 5.0 0.00 0.00 0.00 60 1015.3
20260507223058 70 0 0.0 0.0 0.00 0.00 0.00 53 1015.3
20260507221552 70 0 0.0 0.0 0.00 0.00 0.00 52 1015.5
20260507220054 70 0 0.0 0.0 0.00 0.00 0.00 50 1015.4
20260507214558 70 0 0.0 0.0 0.00 0.02 0.00 51 1015.6
20260507213054 71 115 0.0 2.0 0.00 0.02 0.00 52 1015.6
20260507211554 71 0 0.0 2.0 0.00 0.02 0.00 49 1016.0
20260507210056 70 0 0.0 3.0 0.00 0.02 0.00 50 1016.4
20260507204554 71 0 0.0 4.0 0.00 0.02 0.00 47 1016.3
20260507203102 72 0 0.0 3.0 0.00 0.02 0.00 48 1016.3
20260507201550 72 0 0.0 2.0 0.00 0.02 0.00 50 1016.0
20260507200055 71 0 0.0 6.0 0.00 0.02 0.00 51 1016.2
20260507194552 73 0 0.0 6.0 0.00 0.02 0.00 46 1016.7
20260507193055 72 0 0.0 4.0 0.00 0.02 0.00 49 1016.8
20260507191554 72 0 0.0 6.0 0.00 0.02 0.00 46 1017.3